Weather History for Chipley, FL

Change the Weather History Date:

Wednesday, December 12, 2012

  Actual Average (KMAI) Record (KMAI)
Temperature  
Mean Temperature 50 °F 53 °F  
Max Temperature 57 °F 64 °F 80 °F (2007)
Min Temperature 42 °F 42 °F 30 °F (2014)
Degree Days  
Heating Degree Days 16    
Month to date heating degree days  
Since 1 July heating degree days  
Cooling Degree Days 0    
Month to date cooling degree days  
Year to date cooling degree days  
Moisture  
Dew Point 28 °F    
Average Humidity 47    
Maximum Humidity 70    
Minimum Humidity 26    
Precipitation  
Precipitation 0.00 in 0.13 in 0.59 in (2012)
Month to date precipitation 1.67  
Year to date precipitation 51.34  
Sea Level Pressure  
Sea Level Pressure 30.23 in    
Wind  
Wind Speed 7 mph (NNE)    
Max Wind Speed 10 mph    
Max Gust Speed 17 mph    
Visibility 10 miles    
Events      
T = Trace of Precipitation, MM = Missing Value Source: NWS Daily Summary

Daily Weather History Graph

Daily Weather History Graph

Search for Another Location

Airport:

Trip Planner

Search our weather history database for the weather conditions in past years. The results will help you decide how hot, cold, wet, or windy it might be!

Date:

Astronomy

Dec. 12, 2012 Rise Set
Actual Time 6:30 AM CST 4:41 PM CST
Civil Twilight 6:04 AM CST 5:08 PM CST
Nautical Twilight 5:34 AM CST 5:38 PM CST
Astronomical Twilight 5:04 AM CST 6:07 PM CST
Moon 5:35 AM CST (12/12) 4:17 PM CST (12/12)
Length of Visible Light 11h 04m
Length of Day
10h 10m
Waning Crescent, 1% of the Moon is Illuminated
Dec 12
Waning Crescent
Dec 13
New
Dec 19
First Quarter
Dec 28
Full
Jan 4
Last Quarter

Hourly Weather History & Observations

Time (CST) Temp. Windchill Dew Point Humidity Pressure Visibility Wind Dir Wind Speed Gust Speed Precip Events Conditions
12:15 AM 44.6 °F 40.7 °F 32.0 °F 61% 30.16 in 10.0 mi NE 6.9 mph - N/A   Overcast
12:35 AM 44.6 °F 40.7 °F 32.0 °F 61% 30.18 in 10.0 mi NE 6.9 mph - N/A   Overcast
12:55 AM 44.6 °F 41.4 °F 32.0 °F 61% 30.18 in 10.0 mi NE 5.8 mph - N/A   Mostly Cloudy
1:15 AM 42.8 °F 39.3 °F 32.0 °F 66% 30.18 in 10.0 mi NNE 5.8 mph - N/A   Mostly Cloudy
1:35 AM 42.8 °F 39.3 °F 33.8 °F 70% 30.17 in 10.0 mi North 5.8 mph - N/A   Scattered Clouds
1:55 AM 42.8 °F 40.1 °F 33.8 °F 70% 30.17 in 10.0 mi North 4.6 mph - N/A   Partly Cloudy
2:15 AM 42.8 °F 41.1 °F 33.8 °F 70% 30.18 in 10.0 mi NE 3.5 mph - N/A   Clear
2:35 AM 42.8 °F 38.0 °F 32.0 °F 66% 30.17 in 10.0 mi NE 8.1 mph - N/A   Scattered Clouds
2:55 AM 42.8 °F 38.6 °F 32.0 °F 66% 30.17 in 10.0 mi NNE 6.9 mph - N/A   Scattered Clouds
3:15 AM 42.8 °F 38.0 °F 32.0 °F 66% 30.18 in 10.0 mi NNE 8.1 mph - N/A   Clear
3:35 AM 42.8 °F 38.6 °F 32.0 °F 66% 30.19 in 10.0 mi NNE 6.9 mph - N/A   Scattered Clouds
3:55 AM 44.6 °F 40.2 °F 32.0 °F 61% 30.17 in 10.0 mi NNE 8.1 mph - N/A   Mostly Cloudy
4:15 AM 44.6 °F 40.7 °F 32.0 °F 61% 30.18 in 10.0 mi NNE 6.9 mph - N/A   Mostly Cloudy
4:35 AM 44.6 °F 39.7 °F 30.2 °F 57% 30.18 in 10.0 mi NNE 9.2 mph - N/A   Scattered Clouds
4:55 AM 42.8 °F 38.6 °F 30.2 °F 61% 30.18 in 10.0 mi NNE 6.9 mph - N/A   Clear
5:15 AM 42.8 °F 37.5 °F 30.2 °F 61% 30.17 in 10.0 mi NNE 9.2 mph - N/A   Clear
5:35 AM 42.8 °F 38.6 °F 30.2 °F 61% 30.17 in 10.0 mi NNE 6.9 mph - N/A   Clear
5:55 AM 42.8 °F 38.6 °F 30.2 °F 61% 30.19 in 10.0 mi NNE 6.9 mph - N/A   Partly Cloudy
6:15 AM 42.8 °F 38.6 °F 30.2 °F 61% 30.20 in 10.0 mi NNE 6.9 mph - N/A   Clear
6:35 AM 42.8 °F 38.6 °F 30.2 °F 61% 30.20 in 10.0 mi NNE 6.9 mph - N/A   Clear
6:55 AM 42.8 °F 38.6 °F 30.2 °F 61% 30.21 in 10.0 mi NE 6.9 mph - N/A   Clear
7:15 AM 42.8 °F 39.3 °F 32.0 °F 66% 30.22 in 10.0 mi North 5.8 mph - N/A   Partly Cloudy
7:35 AM 42.8 °F 39.3 °F 32.0 °F 66% 30.22 in 10.0 mi North 5.8 mph - N/A   Scattered Clouds
7:55 AM 44.6 °F 41.4 °F 32.0 °F 61% 30.24 in 10.0 mi NNE 5.8 mph - N/A   Partly Cloudy
8:15 AM 44.6 °F 40.2 °F 30.2 °F 57% 30.25 in 10.0 mi North 8.1 mph 17.3 mph N/A   Partly Cloudy
8:35 AM 44.6 °F 39.2 °F 30.2 °F 57% 30.26 in 10.0 mi NNE 10.4 mph - N/A   Partly Cloudy
8:55 AM 44.6 °F 39.2 °F 30.2 °F 57% 30.27 in 10.0 mi NNE 10.4 mph 17.3 mph N/A   Mostly Cloudy
9:15 AM 46.4 °F 41.9 °F 30.2 °F 53% 30.27 in 10.0 mi North 9.2 mph - N/A   Overcast
9:35 AM 46.4 °F 41.5 °F 30.2 °F 53% 30.27 in 10.0 mi NNE 10.4 mph - N/A   Overcast
9:55 AM 46.4 °F 42.9 °F 30.2 °F 53% 30.27 in 10.0 mi North 6.9 mph - N/A   Overcast
10:15 AM 46.4 °F 42.9 °F 32.0 °F 57% 30.28 in 10.0 mi North 6.9 mph - N/A   Overcast
10:35 AM 46.4 °F 41.9 °F 32.0 °F 57% 30.27 in 10.0 mi NNE 9.2 mph - N/A   Scattered Clouds
10:55 AM 48.2 °F - 32.0 °F 54% 30.26 in 10.0 mi North 5.8 mph - N/A   Clear
11:15 AM 48.2 °F - 30.2 °F 50% 30.27 in 10.0 mi North 4.6 mph - N/A   Clear
11:35 AM 50.0 °F - 30.2 °F 47% 30.26 in 10.0 mi North 3.5 mph - N/A   Clear
11:55 AM 51.8 °F - 32.0 °F 47% 30.26 in 10.0 mi North 6.9 mph - N/A   Clear
12:15 PM 51.8 °F - 30.2 °F 44% 30.25 in 10.0 mi North 5.8 mph - N/A   Clear
12:35 PM 51.8 °F - 30.2 °F 44% 30.24 in 10.0 mi NNW 5.8 mph - N/A   Clear
12:55 PM 51.8 °F - 28.4 °F 41% 30.24 in 10.0 mi NNW 9.2 mph - N/A   Clear
1:15 PM 53.6 °F - 28.4 °F 38% 30.24 in 10.0 mi NNW 9.2 mph - N/A   Clear
1:35 PM 53.6 °F - 26.6 °F 35% 30.23 in 10.0 mi NNW 9.2 mph - N/A   Clear
1:55 PM 55.4 °F - 26.6 °F 33% 30.23 in 10.0 mi NNW 8.1 mph - N/A   Clear
2:15 PM 55.4 °F - 24.8 °F 31% 30.23 in 10.0 mi North 6.9 mph - N/A   Clear
2:35 PM 55.4 °F - 24.8 °F 31% 30.22 in 10.0 mi NNW 9.2 mph 16.1 mph N/A   Clear
2:55 PM 55.4 °F - 24.8 °F 31% 30.21 in 10.0 mi North 8.1 mph 16.1 mph N/A   Clear
3:15 PM 55.4 °F - 24.8 °F 31% 30.21 in 10.0 mi North 6.9 mph - N/A   Clear
3:35 PM 57.2 °F - 23.0 °F 27% 30.21 in 10.0 mi North 8.1 mph - N/A   Clear
3:55 PM 55.4 °F - 23.0 °F 29% 30.21 in 10.0 mi NNE 6.9 mph - N/A   Clear
4:15 PM 55.4 °F - 21.2 °F 26% 30.21 in 10.0 mi NNE 5.8 mph - N/A   Clear
4:35 PM 55.4 °F - 21.2 °F 26% 30.22 in 10.0 mi North 4.6 mph - N/A   Clear
4:55 PM 55.4 °F - 21.2 °F 26% 30.23 in 10.0 mi NNW 4.6 mph - N/A   Clear
5:15 PM 55.4 °F - 21.2 °F 26% 30.23 in 10.0 mi North 3.5 mph - N/A   Clear
5:35 PM 55.4 °F - 21.2 °F 26% 30.23 in 10.0 mi North 4.6 mph - N/A   Clear
6:15 PM 53.6 °F - 21.2 °F 28% 30.24 in 10.0 mi NNE 4.6 mph - N/A   Clear
6:35 PM 53.6 °F - 19.4 °F 26% 30.25 in 10.0 mi North 4.6 mph - N/A   Clear
6:55 PM 53.6 °F - 21.2 °F 28% 30.26 in 10.0 mi NNE 5.8 mph - N/A   Clear
7:15 PM 53.6 °F - 21.2 °F 28% 30.26 in 10.0 mi NNE 5.8 mph - N/A   Clear
7:35 PM 53.6 °F - 21.2 °F 28% 30.27 in 10.0 mi NNE 5.8 mph - N/A   Clear
7:55 PM 53.6 °F - 21.2 °F 28% 30.28 in 10.0 mi NNE 4.6 mph - N/A   Clear
8:15 PM 51.8 °F - 23.0 °F 33% 30.29 in 10.0 mi NNE 5.8 mph - N/A   Clear
8:35 PM 51.8 °F - 24.8 °F 35% 30.28 in 10.0 mi NNE 6.9 mph - N/A   Clear
8:55 PM 51.8 °F - 24.8 °F 35% 30.28 in 10.0 mi North 5.8 mph - N/A   Clear
9:35 PM 51.8 °F - 26.6 °F 38% 30.30 in 10.0 mi NNE 5.8 mph - N/A   Clear
9:55 PM 51.8 °F - 26.6 °F 38% 30.30 in 10.0 mi NNE 6.9 mph - N/A   Clear
10:15 PM 50.0 °F - 28.4 °F 43% 30.30 in 10.0 mi NNE 6.9 mph - N/A   Clear
10:35 PM 50.0 °F - 28.4 °F 43% 30.30 in 10.0 mi NNE 5.8 mph - N/A   Clear
10:55 PM 48.2 °F - 28.4 °F 46% 30.30 in 10.0 mi NNE 6.9 mph - N/A   Clear
11:15 PM 48.2 °F - 26.6 °F 43% 30.30 in 10.0 mi North 5.8 mph - N/A   Clear
11:35 PM 48.2 °F - 26.6 °F 43% 30.30 in 10.0 mi NNE 5.8 mph - N/A   Clear
11:55 PM 48.2 °F - 26.6 °F 43% 30.30 in 10.0 mi NNE 6.9 mph - N/A   Clear